User: anonymous   Login
Location: Unspecified
(0.0000°N, 0.0000°E)
Time: 14:24:52
(UTC+00:00)
Language:

COSMOS 2482 - Orbit

View from above orbital plane
View from above orbital plane
View from above satellite
View from above satellite

Ground track
Ground track

The orbit data is extracted from the following two-line orbital elements,

1 39057U 13001A   18267.76634152 +.00000023 +00000-0 +94025-4 0  9996
2 39057 082.5023 176.1181 0028320 060.9989 325.6207 12.42894657258151
Epoch (UTC): 24 September 2018 18:23:31
Eccentricity: 0.0028320
inclination: 82.5023°
perigee height: 1472 km
apogee height: 1516 km
right ascension of ascending node: 176.1181°
argument of perigee: 60.9989°
revolutions per day: 12.42894657
mean anomaly at epoch: 325.6207°
orbit number at epoch: 25815

The dashed part of the orbit path shows where the satellite is in the earth's shadow,  

DLR